Simultaneous Nadir Overpasses (SNOs) Predictions

Prediction of SNOs between FY3D and TERRA Satellite Orbit:

Table of predicted SNOs for the next 14.0 days since TLE Epoch: 10/11/2025
Index Date (FY3D) Time (FY3D) Lat,Lon (FY3D) SZA (FY3D ) Date (TERRA) Time (TERRA) Lat,Lon (TERRA) SZA (TERRA ) Distance(km) Time Diff (sec)
1 10/12/2025 12:12:36 78.30, -2.94 85.86 10/12/2025 12:13:31 78.31, -2.90 85.87 1.21 55
2 10/12/2025 13:03:20 -78.28, 164.52 94.15 10/12/2025 13:02:52 -78.26, 164.54 94.17 2.20 28
3 10/14/2025 22:33:59 -78.31, 21.76 93.23 10/14/2025 22:34:57 -78.30, 21.64 93.24 2.88 58
4 10/14/2025 23:24:43 78.28,-170.77 86.76 10/14/2025 23:24:16 78.26,-170.87 86.74 3.31 27
5 10/17/2025 08:55:23 78.32, 46.42 87.68 10/17/2025 08:56:21 78.33, 46.36 87.69 1.60 58
6 10/17/2025 09:46:07 -78.29,-146.09 92.34 10/17/2025 09:45:41 -78.32,-146.02 92.31 3.55 26
7 10/19/2025 19:16:47 -78.33, 71.09 91.44 10/19/2025 19:17:47 -78.32, 70.92 91.44 4.01 60
8 10/19/2025 20:07:31 78.31,-121.47 88.56 10/19/2025 20:07:06 78.28,-121.57 88.54 3.34 25
9 10/22/2025 05:38:11 78.35, 95.66 89.46 10/22/2025 05:39:10 78.36, 95.71 89.47 1.37 59
10 10/22/2025 06:28:55 -78.32, -96.82 90.56 10/22/2025 06:28:31 -78.30, -96.91 90.59 2.90 24
11 10/24/2025 15:59:35 -78.36, 120.30 89.68 10/24/2025 16:00:35 -78.35, 120.27 89.69 1.40 60



Historial Predications of SNOs between FY3D and TERRA
